Location: Wald
(31.7579°N, 86.6655°W)
Time: 12:17:08
(UTC+00:00)

SJ-6B - Pass Details

Date: 14 July 2020
Orbit: 510 x 581 km, 97.6° (Epoch: 08 August)

Event Time Altitude Azimuth Distance (km) Brightness Sun altitude
Exits shadow 01:35:38 - 162° (SSE) 2,315 5.5 -8.6°
Reaches altitude 10° 01:36:46 10° 161° (SSE) 1,844 5.0 -8.8°
Maximum altitude 01:40:45 73° 77° (ENE) 598 2.9 -9.5°
Drops below altitude 10° 01:44:50 10° 353° (N) 1,888 6.2 -10.2°
Sets 01:47:00 0° 351° (N) 2,796 7.1 -10.6°
